Skip Page Navigation
NASA JPL Caltech
NASA Logo - Jet Propulsion Laboratory + View the NASA Portal
+ Center for Near-Earth Object Studies
JPL Home Earth Solar System Stars & Galaxies Technology
JPL Solar System Dynamics
BODIES ORBITS EPHEMERIDES TOOLS PHYSICAL DATA DISCOVERY FAQ SITE MAP
IMPORTANT: The SSD Announcement email list is now available. Major changes are coming in the near future, including possible hostname and/or URL changes. To be notified of such changes, subscribe to this email list.

Please visit this page for more details.


JPL Small-Body Database Browser
Search: [ help ]  
392035 (2009 BV54)
Classification: Main-belt Asteroid          SPK-ID: 2392035
Ephemeris | Orbit Diagram | Orbital Elements | Mission Design | Physical Parameters | Discovery Circumstances | Close-Approach Data ]

[ show orbit diagram ]
Orbital Elements at Epoch 2458600.5 (2019-Apr-27.0) TDB
Reference: JPL 9 (heliocentric ecliptic J2000)
 Element Value Uncertainty (1-sigma)   Units 
e .1324109923302977 2.0437e-07  
a 2.799161395802063 7.1389e-08 au
q 2.428521657691251 5.2389e-07 au
i 2.98272556323305 1.6137e-05 deg
node 4.372883125145767 0.00020813 deg
peri 131.3892140718539 0.00024016 deg
M 66.73584281742824 0.00012309 deg
tp 2458283.399456984033
(2018-Jun-13.89945698)
0.00057526 TDB
period 1710.567974664675
4.68
6.5439e-05
1.792e-07
d
yr
n .2104564129178037 8.0512e-09 deg/d
Q 3.169801133912876 8.0842e-08 au
  Orbit Determination Parameters
   # obs. used (total)      54  
   data-arc span      8880 days (24.31 yr)  
   first obs. used      1995-02-02  
   last obs. used      2019-05-27  
   planetary ephem.      DE431  
   SB-pert. ephem.      SB431-N16  
   condition code      0  
   norm. resid. RMS      .58237  
   source      ORB  
   producer      Otto Matic  
   solution date      2019-Sep-24 07:08:26  

Additional Information
 Earth MOID = 1.44402 au 
 Jupiter MOID = 1.86086 au 
 T_jup = 3.311 
[ show covariance matrix ]

Ephemeris | Orbit Diagram | Orbital Elements | Mission Design | Physical Parameters | Discovery Circumstances | Close-Approach Data ]

Physical Parameter Table
Parameter Symbol Value Units Sigma Reference Notes
absolute magnitude H 17.4   n/a MPO234720  

392035 (2009 BV54)          Discovered 2007-Sep-14 by Mt. Lemmon Survey at Mount Lemmon
Reference: Last Updated: 2014-04-17

[ show close-approach data ]
Ephemeris | Orbit Diagram | Orbital Elements | Mission Design | Physical Parameters | Discovery Circumstances | Close-Approach Data ]
ABOUT SSD CREDITS/AWARDS PRIVACY/COPYRIGHT GLOSSARY LINKS
FirstGov
(server date/time)  
NASA Home Page
Site Manager:   Ryan S. Park
Webmaster  Alan B. Chamberlin